Regional Weather Roundup
Issued by NWS New Orleans/Baton Rouge, LA

Home | Current Version | Previous Version | Text Only | Print | Product List | Glossary On
Versions: 1 2 3 4 5 6 7 8 9 10 11 12 13 14 15 16 17 18 19 20 21 22 23 24 25 26 27 28 29 30 31 32 33 34 35 36 37 38 39 40 41 42 43 44 45 46 47 48 49 50
000
ASUS44 KLIX 050211
RWRLIX
NEW ORLEANS REGIONAL WEATHER ROUNDUP
NATIONAL WEATHER SERVICE NEW ORLEANS LA
900 PM CDT SAT JUL 04 2015

NOTE: "FAIR" INDICATES FEW OR NO CLOUDS BELOW 12,000 FEET WITH NO
      SIGNIFICANT WEATHER AND/OR OBSTRUCTIONS TO VISIBILITY.
      SKY/WX - SKY CONDITION AND SIGNIFICANT WEATHER.
      TMP - AIR TEMPERATURE.     DP    - DEWPOINT TEMPERATURE.
      RH  - RELATIVE HUMIDITY.   PRES  - PRESSURE.
      HI  - HEAT INDEX.          WCI   - WIND CHILL INDEX.

*  THESE STATIONS ARE NOT NWS OR FAA STATIONS AND ARE NOT UNDER
   NWS QUALITY CONTROL.

LAZ038-040-048-061>063-065>067-069-050300-
SOUTHEAST LOUISIANA

CITY           SKY/WX    TMP DP  RH WIND       PRES   REMARKS
N.O. AUDUBON     N/A     84  76  75 MISG        N/A
N.O. INTL ARPT CLOUDY    77  70  79 NE6       30.05S
N.O. LAKEFRONT CLOUDY    84  72  67 E7        30.05S
N.O. DOWNTOWN* MOCLDY    84  70  61 S6        30.06S
RESERVE*         N/A     78  72  81 CALM      30.05R
SLIDELL        CLOUDY    77  72  84 NW3       30.05S
BATON ROUGE    CLOUDY    74  73  97 NE5       30.05S
BOOTHVILLE     CLOUDY    82  75  79 CALM      30.05F
BELLE CHASSE   CLOUDY    77  72  84 CALM      30.04F
BOGALUSA*        N/A     75  71  87 CALM      30.08S
GALLIANO*      CLOUDY    81  75  82 CALM      30.04F
NEW ROADS*       N/A    N/A N/A N/A CALM      30.06R THUNDER
GONZALES*        N/A     77  77 100 CALM      30.04S
HAMMOND*       MOCLDY    73  70  88 CALM      30.07S
HOUMA*         CLOUDY    78  75  91 CALM      30.04S
PORT FOURCHON* MOCLDY    86  73  66 SW5       30.06S

$$

MSZ070-080>082-050300-
SOUTHERN MISSISSIPPI

CITY           SKY/WX    TMP DP  RH WIND       PRES   REMARKS
MCCOMB         CLOUDY    71  71 100 CALM      30.07R
GULFPORT       CLOUDY    78  71  79 SE3       30.03F
BILOXI         CLOUDY    77  71  83 NE2       30.03F
PASCAGOULA     CLOUDY    73  72  96 CALM      30.04F
STENNIS ARPT*  CLEAR     73  66  78 MISG      30.05

$$

COASTAL OBSERVATIONS
LAKE AND NEARSHORE STATIONS

STATION/POSITION TIME  TEMP    WIND        PRES    WAVE
                       AIR SEA DIR/SP/G            HT/PER
                 (UTC) (F)     (DEG/KT/KT) (MB)    (FT/S)
PASCAGOULA       0100   76     150/  4/  5 1017.3
WAVELAND YACHT   0100   80 85  150/ 10/ 12 1017.6
GRAND ISLE       0100   85 88  250/  3/  4 1017.8
SOUTHWEST PASS   0100   84 83  250/  5/  5 1018.5
NEW CANAL        0100   82 85   70/  3/  4 1016.8
SHELL BEACH      0100   80 86  100/  8/  9 1017.0

OFFSHORE STATIONS

STATION/POSITION TIME  TEMP    WIND        PRES    WAVE
                       AIR SEA DIR/SP/G            HT/PER
                 (UTC) (F)     (DEG/KT/KT) (MB)    (FT/S)
64 S DAUPHIN ISL 0150   84 87  210/  6/  8 1018.4    2/ 4

$$



USA.gov is the U.S. government's official web portal to all federal, state and local government web resources and services.